Satellite: NOAA-17
Catalog number: 27453
Epoch time:      04330.32950951
Element set:     137
Inclination:       98.6860 deg
RA of node:        40.7154 deg
Eccentricity:    0.0010967
Arg of perigee:   287.2478 deg
Mean anomaly:      72.7519 deg
Mean motion:   14.23598857 rev/day
Decay rate:        6.0e-07 rev/day^2
Epoch rev:           12583
Checksum:              322

/EX
SB KEPS @ AMSAT  $ORB04330.M
Orbital Elements  04330.MISC

HR AMSAT ORBITAL ELEMENTS FOR MANNED AND MISCELLANEOUS SATELLITES
FROM WA5QGD FORT WORTH,TX November 25, 2004
SEND SUBSCRIBE/UNSUBSCRIBE TO majordomo@amsat.org ONLY
BID: ORB04330.M
TO ALL RADIO AMATEURS BT

Satellite: HUBBLE
Catalog number: 20580
Epoch time:      04330.87167497
Element set:     214
Inclination:       28.4673 deg
RA of node:       153.2896 deg
Eccentricity:    0.0004123
Arg of perigee:   269.5938 deg
Mean anomaly:      90.4179 deg
Mean motion:   14.99454423 rev/day
Decay rate:      1.121e-05 rev/day^2
Epoch rev:           59969
Checksum:              323

Satellite: UARS
Catalog number: 21701
Epoch time:      04330.44259648
Element set:     318
Inclination:       56.9811 deg
RA of node:       295.8880 deg
Eccentricity:    0.0004489
Arg of perigee:    83.7180 deg
Mean anomaly:     276.4374 deg
Mean motion:   15.03689198 rev/day
Decay rate:       -1.3e-07 rev/day^2
Epoch rev:           72284
Checksum:              318

Satellite: PO-34
Catalog number: 25520
Epoch time:      04329.12927931
Element set:      58
Inclination:       28.4610 deg
RA of node:       242.8834 deg
Eccentricity:    0.0005698
Arg of perigee:   156.0374 deg
Mean anomaly:     204.0482 deg
Mean motion:   15.15922392 rev/day
Decay rate:      1.635e-05 rev/day^2
Epoch rev:           33543
Checksum:              293

Satellite: ISS
Catalog number: 25544
Epoch time:      04330.99699074
Element set:     224
Inclination:       51.6391 deg
RA of node:       219.9608 deg
Eccentricity:    0.0004466
Arg of perigee:    47.2409 deg
Mean anomaly:     144.9327 deg
Mean motion:   15.70597224 rev/day
Decay rate:     2.7216e-04 rev/day^2
Epoch rev:           34373
Checksum:              314

Satellite: OO-38
Catalog number: 26063
Epoch time:      04329.93486633
Element set:     218
Inclination:      100.2239 deg
RA of node:       146.3861 deg
Eccentricity:    0.0036564
Arg of perigee:   270.1909 deg
Mean anomaly:      89.5100 deg
Mean motion:   14.35684728 rev/day
Decay rate:        7.0e-07 rev/day^2
Epoch rev:           25298
Checksum:              312

Satellite: NO-45
Catalog number: 26932
Epoch time:      04330.33479424
Element set:     901
Inclination:       67.0611 deg
RA of node:        32.4508 deg
Eccentricity:    0.0007454
Arg of perigee:   282.6592 deg
Mean anomaly:      77.3679 deg
Mean motion:   14.29456007 rev/day
Decay rate:        1.6e-07 rev/day^2
Epoch rev:           16466
Checksum:              302

/EX




----
Via the keps mailing list at AMSAT.ORG courtesy of AMSAT-NA.
To unsubscribe, send "unsubscribe keps" to Majordomo@amsat.org

--- ViaMAIL!/WC v1.60d
 * Origin: Chowdanet (401-331-0615) telnet://chowdanet.com  (1:323/120)